Flag for South Korea Weather past 2 weeks in Busan, South Korea

Now
73 °F

Light rain. Overcast.


Feels Like: 73 °F
Forecast: 71 / 75 °F
Wind: 9 mph from Northeast

Location: Pusan / Kimhae International Airport

Current Time: Sep 1, 2015 at 8:53:58 AM

Latest Report: Sep 1, 2015 at 8:00 AM


Visibility: N/A

Pressure: 29.74 "Hg

Humidity: 83%

Dew point: 68 °F

Location of BusanLocation

Historic Weather in Busan — Graph

°F

Busan temperature yesterday

Maximum temperature yesterday: 82 °F (at 11:00 AM)
Minimum temperature yesterday: 70 °F (at 6:00 AM)
Average temperature yesterday: 77 °F

Past Weeks' High & Low Weather Summary

 TemperatureHumidityPressure
High88 °F (Aug 22, 4:00 PM)100% (Aug 21, 11:00 AM)29.95 "Hg (Aug 21, 11:00 AM)
Low68 °F (Aug 26, 4:00 AM)40% (Aug 22, 4:00 PM)29.27 "Hg (Aug 25, 9:00 AM)
Average77 °F78%29.75 "Hg
* Reported Aug 17 8:00 AM — Sep 1 8:00 AM, Busan, Weather by CustomWeather, © 2015

Note: Actual official high and low records may vary slightly from our data, if they occured in-between our weather recording intervals... More about our weather records

Advertising

Busan weather history for previous 24 hours

 ConditionsComfort  
Time TempWeatherWind HumidityBarometerVisibility
8:00 AM
Tue, Sep 1
73 °FLight rain. Overcast.9 mph83%29.74 "HgN/A
7:00 AM72 °FLight rain. Mostly cloudy.10 mph88%29.74 "HgN/A
6:00 AM72 °FLight rain. Mostly cloudy.6 mph88%29.74 "HgN/A
5:00 AM72 °FLight rain. Overcast.9 mph88%29.74 "Hg5 mi
4:00 AM72 °FLight rain. Mostly cloudy.13 mph88%29.74 "HgN/A
3:00 AM72 °FLight rain. Overcast.9 mph88%29.77 "Hg6 mi
2:00 AM72 °FLight rain. Overcast.9 mph88%29.80 "Hg5 mi
1:00 AM72 °FLight rain. Overcast.12 mph88%29.83 "Hg5 mi
12:00 AM72 °FLight rain. Overcast.9 mph88%29.83 "HgN/A
11:00 PM
Mon, Aug 31
77 °FLight rain. Overcast.9 mph69%29.86 "HgN/A
10:00 PM75 °FPartly cloudy.10 mph74%29.86 "HgN/A
9:00 PM77 °FPassing clouds.13 mph69%29.86 "HgN/A
8:00 PM77 °FPartly cloudy.12 mph65%29.86 "HgN/A
7:00 PM79 °FPartly cloudy.13 mph65%29.86 "HgN/A
6:00 PM79 °FBroken clouds.13 mph65%29.86 "HgN/A
5:00 PM79 °FBroken clouds.13 mph65%29.86 "HgN/A
4:00 PM81 °FPartly sunny.13 mph62%29.86 "HgN/A
3:00 PM81 °FPartly sunny.13 mph62%29.83 "HgN/A
2:00 PM82 °FPartly sunny.12 mph58%29.86 "HgN/A
1:00 PM82 °FBroken clouds.14 mph58%29.89 "HgN/A
12:00 PM82 °FBroken clouds.14 mph58%29.89 "HgN/A
11:00 AM82 °FScattered clouds.13 mph62%29.89 "HgN/A
10:00 AM81 °FScattered clouds.13 mph66%29.89 "Hg5 mi
9:00 AM79 °FFog.8 mph70%29.89 "Hg2 mi
8:00 AM75 °FFog.3 mph83%29.89 "Hg2 mi
Weather by CustomWeather, © 2015

See weather overviewHow to use our weather pages